Wind_Speed
10 7 8 8 9 11 12 14 13 12 14 12 9 7 9 8 7 8 5 10 6 1 7 10 7 7 3 9 13 14 14 11 8 10 11 9 8 8 8 15 20 16 18 19 20 21 18 17 17 16 18 18 18 18 17 16 15 16 17 17 17 18 19 18 19 20 18 18 19 18 17 19 19 16 14 15 16 17 17 16 18 19 19 18 18 19
10 8 9 11 13 13 13 13 14 12 10 9 8 8 9 8 8 8 3 8 6 2 6 10 7 7 7 6 13 16 13 10 9 8 10 9 7 7 9 12 18 16 16 18 17 19 19 16 17 16 17 17 17 17 17 18 18 17 17 18 19 20 20 19 19 20 19 18 20 19 18 18 20 18 16 17 16 16 17 16 18 20 20 19 19 19
9 10 13 14 13 13 12 13 13 10 8 9 8 8 8 7 9 7 3 8 6 2 6 9 8 6 5 5 6 14 13 9 9 4 6 10 3 4 8 6 12 13 15 18 18 19 17 16 17 17 17 17 17 17 18 19 21 20 19 20 21 21 21 19 19 21 19 18 19 19 17 17 19 19 18 18 16 17 18 16 18 21 20 19 19 21
8 8 11 13 12 13 13 12 10 7 7 9 7 8 8 7 9 4 4 5 6 5 7 7 7 7 5 7 6 10 17 11 7 4 4 11 11 6 12 11 11 13 12 13 16 19 18 16 17 18 18 18 18 19 19 21 24 25 23 23 24 23 22 21 20 22 20 18 18 19 18 16 16 18 19 19 17 17 18 17 19 21 21 20 19 21
11 9 7 9 9 8 9 9 9 7 7 9 10 10 8 10 13 4 4 7 8 8 9 6 5 6 6 7 3 9 16 11 6 3 1 7 12 8 12 14 13 13 10 9 14 17 18 18 18 19 20 20 20 21 22 24 26 27 26 26 27 23 22 22 21 22 21 19 19 20 21 19 17 18 19 20 20 19 19 19 21 22 21 20 20 21
12 13 8 7 5 4 7 9 10 9 7 9 11 12 10 11 13 7 1 7 6 6 8 6 4 3 4 1 5 7 9 8 6 4 2 3 4 3 5 4 5 10 9 7 9 12 15 19 21 21 21 21 22 23 24 24 24 25 26 27 27 24 24 24 22 22 22 21 22 21 23 22 21 22 21 21 24 23 21 21 22 21 21 21 19 21
10 11 5 5 7 8 9 9 10 8 7 7 3 9 16 9 5 9 8 5 6 5 8 9 4 3 4 3 5 5 6 8 5 3 2 3 3 4 4 5 3 6 11 6 8 9 10 16 21 23 24 25 26 27 26 25 25 27 29 29 27 26 27 25 23 24 24 23 23 23 24 23 22 24 23 21 22 23 22 21 21 21 21 21 19 20
9 9 2 3 9 8 9 10 11 8 8 5 3 9 14 5 1 9 11 8 8 5 6 10 4 4 4 3 6 2 3 5 4 3 3 7 7 2 3 5 7 5 9 11 10 10 9 11 15 18 21 25 27 28 29 29 31 31 31 30 29 28 27 26 24 25 25 25 24 24 25 23 21 23 23 22 21 21 22 21 21 21 21 22 20 20
9 11 7 7 7 6 11 12 9 8 7 3 6 11 11 8 8 8 9 8 7 7 2 4 2 4 3 3 5 3 2 2 3 2 4 8 5 0 3 6 7 8 7 10 13 11 9 9 11 12 15 19 22 26 30 34 35 33 32 32 31 29 28 27 26 26 26 26 25 23 24 24 23 22 21 23 22 20 21 21 21 22 21 22 21 20
6 8 8 8 7 8 13 9 2 5 8 5 10 11 8 8 7 7 8 6 8 7 6 7 5 3 2 2 2 1 2 3 2 3 5 6 3 1 3 6 8 9 8 7 9 9 8 9 11 10 13 16 17 21 28 33 34 33 33 33 32 30 30 28 27 27 27 26 26 25 25 25 25 23 20 22 23 20 21 21 20 22 21 22 23 20
6 7 7 6 7 9 12 9 4 4 11 10 7 6 7 7 5 6 3 5 6 5 7 12 10 6 3 2 3 2 3 4 3 4 5 5 3 3 3 6 11 10 7 6 5 5 6 7 7 8 13 17 16 17 21 26 29 31 33 33 32 32 31 31 30 30 29 28 27 26 26 26 26 25 22 22 24 22 23 22 20 21 22 23 24 20
11 9 6 6 9 11 12 9 3 4 7 9 6 5 6 4 3 4 2 2 5 4 7 12 10 8 6 2 5 4 4 6 5 5 4 3 4 5 4 6 10 8 6 6 6 5 5 5 5 7 12 15 15 14 15 17 22 27 32 33 33 34 34 34 32 30 29 29 28 27 26 27 26 26 24 23 25 25 25 24 22 23 23 22 23 21
11 11 9 9 12 10 10 8 6 7 8 6 6 6 5 3 3 4 2 4 5 5 10 8 3 6 4 1 4 4 4 7 8 7 8 4 6 5 4 5 5 5 6 7 5 4 4 4 4 6 10 11 10 10 11 13 17 22 29 33 34 37 37 34 32 31 31 30 29 27 27 27 26 27 26 25 26 27 26 25 24 25 24 22 23 23
8 11 13 11 10 12 10 8 7 7 7 8 7 5 4 4 5 6 6 6 4 6 9 4 3 6 2 3 4 5 6 9 12 12 13 12 12 8 5 5 4 6 7 7 6 5 4 4 3 5 8 8 7 8 9 12 16 17 23 31 35 37 36 34 33 31 31 30 28 28 27 26 26 28 27 25 26 28 29 28 26 25 24 22 23 25
7 6 10 10 8 14 13 9 9 9 6 7 7 6 5 4 6 7 5 6 5 4 3 6 4 5 1 3 2 5 7 10 12 13 15 12 11 8 3 3 5 6 6 7 7 4 3 3 2 3 4 5 6 8 7 10 15 17 23 30 35 36 35 34 33 31 30 29 28 28 27 26 26 27 28 26 26 28 30 30 29 27 26 23 23 25
7 6 5 9 6 8 13 10 8 10 8 5 7 7 5 4 5 6 5 6 8 5 3 3 1 5 3 4 2 3 6 10 10 11 13 12 9 7 5 5 6 5 6 8 6 4 3 2 2 2 2 3 6 8 7 8 12 17 24 30 33 34 34 32 30 29 29 29 28 27 26 26 26 26 27 27 27 29 30 29 30 30 28 26 23 22
3 7 4 8 3 3 7 7 7 9 6 2 6 4 1 6 7 5 6 6 7 5 4 3 3 5 4 2 2 2 4 8 9 9 9 10 10 8 7 7 5 4 6 9 6 5 4 3 3 3 4 3 5 7 8 9 11 15 22 29 30 31 31 29 28 28 28 28 28 26 25 25 26 26 27 28 28 29 29 28 28 30 29 26 25 22
3 8 2 6 6 9 9 10 8 9 7 3 5 4 5 7 5 2 4 4 4 4 3 3 2 3 2 1 2 3 4 5 6 7 8 8 9 8 5 4 4 5 7 8 6 4 4 4 4 4 6 6 6 7 8 10 12 13 18 25 27 26 26 25 25 25 27 29 28 26 25 25 25 26 27 28 28 27 27 26 26 28 28 28 28 26
4 6 2 5 10 9 10 6 8 9 10 7 8 8 5 5 3 2 4 4 5 5 2 1 1 2 2 0 3 3 2 5 5 5 5 6 6 4 2 3 3 4 6 8 7 6 6 7 6 6 8 8 7 7 9 10 11 13 17 21 23 23 22 22 22 23 25 27 27 26 25 25 24 25 27 28 28 27 26 25 24 25 27 28 28 28
4 3 3 6 8 6 9 6 6 7 9 9 8 7 6 5 3 2 3 3 6 5 2 2 1 0 1 4 6 4 3 3 5 4 3 3 2 1 2 5 5 4 5 8 9 9 8 7 8 9 10 10 9 8 8 9 11 14 16 18 19 20 19 19 19 20 22 24 25 25 24 24 24 24 26 27 28 28 26 25 26 26 27 29 29 28
4 3 3 4 5 4 4 4 5 6 5 7 7 5 5 5 2 2 4 4 5 5 2 1 1 1 1 6 8 8 5 3 3 3 3 2 0 1 3 4 7 6 6 9 11 10 9 8 10 12 11 10 10 9 8 8 10 13 15 16 17 17 17 17 17 19 20 21 22 23 22 22 23 23 24 24 25 27 26 26 28 29 27 30 31 29
4 4 4 4 5 6 4 3 7 9 4 4 5 3 4 5 3 4 5 5 6 6 3 2 1 2 2 4 4 7 7 6 5 6 6 4 3 2 3 4 5 5 6 10 10 9 10 8 11 13 11 10 10 9 9 8 9 11 13 15 15 16 16 16 17 19 20 21 22 22 22 21 21 22 22 21 23 25 26 26 28 29 28 28 30 29
6 4 6 7 5 7 8 7 7 9 7 6 6 5 5 6 5 5 4 4 6 6 6 5 2 1 2 2 3 5 7 6 8 9 7 5 5 5 4 4 4 4 6 10 9 8 9 7 12 13 11 9 8 8 9 11 11 11 12 13 14 15 16 17 17 17 18 20 21 22 23 23 22 23 23 21 22 24 25 26 27 28 28 27 28 29
5 4 6 7 6 7 11 12 8 7 6 7 6 6 7 7 6 6 5 5 6 5 6 5 3 1 2 3 4 5 8 8 7 8 7 6 7 6 5 6 5 4 7 8 7 6 4 1 8 11 10 10 8 7 8 10 12 12 12 13 13 14 15 16 15 15 15 18 19 19 20 22 23 24 23 21 22 25 26 27 27 27 28 28 29 30
1 4 4 5 6 6 7 9 7 6 4 5 6 8 8 8 8 6 3 5 4 3 4 5 2 1 4 4 5 6 6 7 7 6 6 7 7 5 5 5 4 4 7 7 6 4 5 4 2 6 8 10 10 8 8 9 10 11 11 11 12 11 12 12 12 13 15 17 16 16 17 21 23 23 23 23 24 26 28 27 26 24 24 27 29 29
5 2 2 4 6 6 5 5 5 3 3 6 8 10 9 9 9 7 3 4 4 3 5 4 2 1 6 6 7 8 5 5 7 6 7 7 6 5 5 5 5 5 6 5 4 3 2 3 4 3 5 8 9 8 9 9 9 9 9 10 10 10 11 12 12 14 16 15 14 15 17 20 22 22 23 24 25 28 28 27 26 24 24 27 29 28
6 5 5 6 7 7 7 6 7 7 7 9 10 9 9 9 9 7 4 3 3 5 3 1 2 3 6 11 10 11 9 7 8 9 8 6 5 5 5 4 5 5 5 3 3 3 5 6 5 4 6 7 7 8 8 8 7 7 8 9 10 11 12 12 13 15 17 17 16 16 18 21 22 21 22 22 24 27 28 29 29 26 25 28 29 28
5 8 9 11 12 12 13 11 11 12 11 13 12 10 10 10 8 7 5 4 3 4 4 0 3 7 3 11 10 10 13 10 8 10 9 6 6 5 5 6 5 4 4 3 4 5 7 7 4 4 6 6 6 6 6 5 6 6 7 10 12 12 12 12 12 13 16 18 17 16 18 21 22 22 21 21 23 25 26 29 29 26 27 29 28 26
6 9 10 13 15 15 15 14 14 14 13 15 14 13 12 11 10 9 8 9 7 4 5 3 4 7 1 8 5 6 13 11 9 11 10 7 7 6 6 6 5 4 3 4 5 5 6 6 3 1 2 5 6 6 6 6 6 7 8 10 11 11 11 12 11 11 13 14 14 13 15 18 18 18 18 19 22 24 24 25 24 23 27 28 25 24
6 6 9 14 14 14 16 16 16 16 15 15 16 15 14 13 14 13 10 11 8 6 7 4 4 8 3 7 4 7 14 12 10 12 11 8 7 7 7 6 5 4 4 5 7 5 3 3 2 2 2 6 9 9 9 7 7 8 7 7 9 10 11 12 10 10 11 11 10 11 13 15 15 15 16 17 20 22 22 22 21 22 26 27 24 23
7 5 8 11 10 12 15 16 17 16 15 16 16 15 14 14 15 14 11 10 7 6 8 6 6 7 1 4 7 16 19 13 11 12 11 9 8 8 7 6 5 4 5 7 8 5 3 4 5 4 3 7 9 8 8 8 8 8 7 6 7 9 11 13 12 10 10 9 9 10 11 12 13 15 16 16 17 19 20 21 21 22 25 27 25 23
6 6 6 8 8 10 12 15 16 15 15 17 17 15 15 14 13 12 11 9 4 4 7 5 4 3 3 4 6 18 19 13 13 13 12 10 8 8 7 7 7 6 5 7 9 5 5 7 6 2 3 6 7 5 6 8 8 9 8 6 6 7 10 14 14 11 11 10 11 11 10 11 12 13 14 14 15 17 19 19 18 19 22 25 24 21
6 6 5 7 7 8 11 15 15 14 14 13 12 13 14 14 14 13 12 11 7 6 5 4 3 2 4 1 3 11 15 13 13 12 10 10 8 7 6 6 6 5 4 7 9 7 8 8 2 3 4 4 4 4 5 7 8 7 7 6 7 7 9 12 13 13 13 13 12 12 11 12 12 12 12 13 15 18 19 16 12 14 19 21 21 21
9 9 7 6 6 8 12 14 13 12 11 8 8 11 11 12 14 13 12 12 10 7 4 3 4 2 1 3 3 8 14 12 12 13 12 10 8 8 7 7 6 4 4 6 7 8 11 7 3 5 4 3 3 3 5 7 7 7 7 6 7 8 9 10 12 13 15 15 14 12 12 13 14 14 15 17 17 18 19 16 11 15 18 18 19 21
10 10 8 6 7 8 9 10 11 10 9 9 10 11 11 11 12 13 14 13 10 7 5 5 4 2 2 5 3 15 18 10 11 15 12 7 7 8 9 9 8 5 5 4 5 10 12 7 5 5 4 4 3 3 5 6 6 7 7 7 7 9 9 9 11 12 14 15 15 13 12 11 12 13 15 17 17 17 18 16 13 15 18 17 17 18
11 10 7 6 8 7 7 8 10 8 9 12 12 11 12 10 9 12 13 10 7 6 4 4 5 4 4 5 5 21 24 15 12 15 14 10 9 10 10 9 9 7 5 4 4 9 11 5 5 4 4 4 4 5 6 5 5 7 7 6 6 8 8 8 9 10 11 14 15 15 14 12 12 12 13 15 16 15 15 15 14 15 16 15 16 19
13 9 7 8 8 7 8 8 8 10 11 11 11 11 10 7 7 8 8 6 5 5 5 5 6 6 6 5 6 17 18 12 9 11 14 14 12 11 11 9 10 7 5 6 6 9 8 4 4 3 5 5 5 6 6 5 5 6 6 5 5 5 6 7 8 8 10 12 14 14 14 14 13 14 14 15 15 14 13 14 15 17 17 16 18 21
15 11 9 9 7 7 9 8 8 10 9 8 11 13 11 9 10 9 7 7 6 7 9 9 5 5 4 2 7 12 8 4 4 7 13 14 10 10 9 9 11 8 6 7 10 10 7 4 5 4 5 5 5 6 6 5 5 4 4 4 4 4 4 4 5 5 7 9 10 10 12 14 14 14 16 17 16 15 13 13 14 15 16 18 19 20
19 14 10 10 9 9 9 9 9 8 7 7 9 13 15 13 11 11 11 6 4 5 5 4 4 5 5 8 11 10 3 4 4 7 12 12 11 11 8 8 8 8 7 8 10 10 8 6 6 5 5 5 5 5 6 6 5 4 4 3 3 3 3 2 2 3 4 5 8 8 8 10 12 14 16 16 16 15 14 14 15 15 16 17 17 18
16 12 11 12 11 10 10 9 8 6 7 8 8 11 14 10 6 9 9 4 7 9 9 15 15 7 9 17 12 5 3 2 3 7 9 11 12 10 9 7 6 7 9 8 10 13 11 7 6 7 7 6 6 6 6 6 5 5 4 4 3 2 2 2 2 2 2 2 4 6 6 7 9 12 14 14 14 15 15 16 17 18 18 18 18 18
8 8 10 12 12 11 11 10 8 6 5 6 6 8 8 4 3 6 5 2 8 10 11 16 15 10 15 15 7 3 2 5 7 9 9 9 11 10 12 10 10 9 10 11 15 17 13 9 8 7 6 6 6 5 5 4 3 4 4 3 3 2 2 3 3 2 1 1 2 4 4 4 7 9 11 12 13 13 14 16 18 19 19 20 20 21
4 4 6 10 11 10 8 7 7 5 5 13 8 6 5 2 4 2 2 2 5 11 12 13 13 12 10 6 4 5 7 8 9 10 10 8 7 9 13 13 13 13 12 13 16 15 13 13 12 8 7 6 5 5 5 5 4 4 3 2 2 2 3 3 3 3 2 1 1 2 2 3 6 7 7 9 11 12 12 14 15 17 18 19 20 22
2 1 4 6 7 7 7 5 5 6 5 17 14 5 6 5 1 3 6 4 6 9 9 10 11 9 6 3 4 7 9 9 7 8 13 11 7 9 11 12 12 14 14 13 13 12 12 15 14 12 10 8 6 5 5 5 5 4 3 2 2 3 4 3 2 2 3 3 2 2 2 3 4 5 6 8 10 10 11 11 12 13 14 16 18 19
4 4 4 3 3 5 6 4 2 3 2 9 10 3 6 8 6 7 8 6 6 6 5 7 7 7 8 4 1 5 8 8 5 6 13 17 14 13 12 12 13 15 13 11 11 12 13 14 14 13 11 9 7 6 6 5 5 3 2 2 4 5 3 2 0 1 2 4 4 4 4 4 4 4 6 8 10 10 10 10 10 11 11 12 14 15
5 5 4 2 2 5 5 2 1 1 2 2 4 3 5 9 11 12 9 7 6 6 6 6 4 3 4 3 2 2 4 5 5 9 11 16 19 16 13 13 14 14 13 12 13 13 13 13 13 13 11 9 7 7 6 7 6 4 2 2 5 4 3 1 1 1 2 3 4 4 4 4 4 5 7 8 9 10 10 10 10 9 9 10 10 11
5 4 1 2 4 6 6 4 3 3 3 2 5 7 6 6 10 12 10 7 6 6 6 7 6 6 4 2 1 2 3 4 7 11 10 14 16 14 12 14 15 14 13 14 15 15 14 13 13 12 11 9 8 7 7 8 7 5 4 5 4 2 2 2 3 3 2 3 4 4 4 4 5 6 8 8 9 11 12 13 13 12 11 11 11 11
5 12 7 3 5 5 6 7 6 4 4 6 4 6 6 4 8 11 10 8 7 7 7 6 8 9 8 7 7 6 6 7 10 10 14 15 14 14 15 16 15 14 14 15 17 17 15 14 13 12 10 8 8 7 7 6 5 5 6 5 2 1 4 4 3 4 3 3 4 4 4 5 6 8 8 8 8 9 10 11 12 12 12 12 12 12
4 10 7 3 5 6 4 5 6 4 3 4 1 4 5 4 7 10 11 11 10 9 8 7 7 9 10 10 12 11 11 13 12 12 17 16 13 16 19 17 15 15 15 17 19 17 14 13 12 11 10 8 6 5 6 5 5 5 6 5 4 4 5 5 4 4 4 4 4 4 4 5 5 6 7 8 8 7 6 6 7 7 8 9 11 11
7 7 4 3 6 8 3 7 10 6 4 6 4 3 4 4 6 8 9 10 11 10 10 9 8 9 10 12 14 15 17 18 15 14 18 19 18 19 18 16 15 16 17 18 18 16 14 13 12 11 11 9 7 6 5 5 5 4 4 4 5 6 7 6 4 4 4 4 5 5 5 5 5 4 6 7 8 8 8 8 8 8 10 12 13 13
11 6 3 3 5 6 2 3 4 2 2 6 8 6 5 5 6 7 8 10 11 12 12 11 11 9 9 12 14 17 22 24 18 14 19 23 23 21 19 18 17 17 17 18 17 15 14 14 12 11 11 9 8 7 5 5 5 4 2 2 2 4 4 4 3 4 3 4 4 5 6 6 5 6 6 6 5 6 8 9 9 9 10 11 12 11
11 4 0 1 3 4 4 3 2 3 3 6 8 7 6 7 7 7 8 10 11 12 13 12 12 13 11 11 13 17 25 27 23 18 20 24 24 23 22 21 21 19 18 18 17 16 15 14 12 11 11 10 9 8 6 5 4 3 1 1 2 3 4 4 3 3 3 4 6 7 7 7 7 7 7 6 5 5 5 7 7 8 8 8 7 7
Wind_Direction
215 227 225 230 234 241 241 233 240 262 276 290 306 298 283 280 274 267 209 151 137 248 272 277 276 290 263 168 175 175 176 192 199 180 182 219 214 199 204 165 165 186 192 192 191 187 190 193 195 193 197 203 201 198 193 189 188 188 184 179 180 182 187 194 188 180 179 178 173 171 173 168 167 173 175 179 177 175 177 180 182 181 182 181 178 179
208 234 233 236 236 239 252 252 250 257 272 292 299 286 277 279 276 272 209 144 140 230 272 283 268 257 268 208 174 173 178 185 199 193 167 187 199 200 220 172 163 185 186 180 183 189 196 198 196 190 194 201 197 196 197 194 190 191 194 188 185 187 192 200 194 186 184 182 179 174 175 174 170 173 176 174 173 177 180 183 185 184 186 185 180 181
202 234 234 236 247 249 252 259 266 283 300 297 284 273 271 270 264 253 153 140 151 214 269 282 283 270 273 263 201 177 177 173 188 211 100 121 141 273 256 192 159 181 181 175 183 190 196 204 201 194 196 201 199 200 201 200 195 194 198 194 191 193 196 200 196 191 188 185 186 177 174 181 176 173 175 172 177 185 182 184 187 186 188 187 183 182
214 229 227 224 236 245 250 256 271 293 282 267 267 270 265 263 268 241 142 149 157 203 259 282 295 294 286 268 258 158 156 162 171 203 73 123 153 209 248 232 181 188 193 178 188 198 198 202 204 203 205 205 203 204 203 204 202 198 198 199 201 199 198 203 199 194 190 186 190 180 173 185 184 178 177 173 180 189 185 186 190 189 189 189 187 184
257 279 268 237 231 237 263 277 270 269 263 252 241 252 267 263 268 274 141 176 183 210 235 258 273 271 273 261 260 117 138 147 135 161 17 137 159 191 234 225 186 188 213 196 191 203 209 209 209 209 211 211 208 208 207 207 207 204 201 205 209 204 199 204 202 195 190 188 192 182 175 182 181 180 181 175 177 186 191 191 192 191 190 190 190 187
264 274 267 252 268 261 262 268 257 250 258 261 237 228 247 266 281 308 159 187 213 230 198 206 275 275 286 354 112 124 131 127 124 152 174 140 164 269 272 248 158 167 190 222 212 206 216 221 221 217 215 217 214 212 212 211 210 206 203 207 210 206 200 202 204 197 191 191 193 184 181 183 182 182 182 180 182 189 194 193 189 190 192 191 192 190
257 256 227 230 263 250 242 253 251 245 251 269 290 236 230 227 285 301 287 251 264 269 167 181 276 293 272 14 99 149 121 107 111 118 122 100 62 347 320 322 308 170 160 200 245 231 219 216 225 228 224 224 224 221 218 212 208 206 207 208 205 205 204 203 204 200 194 195 196 190 186 185 185 185 183 183 187 193 196 195 189 189 192 190 193 194
241 250 171 207 255 246 242 247 226 227 254 251 358 284 252 217 265 284 285 268 265 277 169 181 243 284 269 5 40 39 107 122 114 89 87 80 67 25 285 292 288 244 180 184 214 248 247 218 225 235 231 230 232 230 224 215 210 210 213 211 203 202 205 204 207 204 199 199 199 195 191 188 185 185 187 186 188 195 196 196 192 190 192 190 192 197
199 234 218 206 243 246 247 250 205 201 254 280 358 325 315 339 331 302 288 270 291 320 268 214 277 293 288 47 54 13 306 208 139 111 95 90 85 183 263 274 266 264 241 196 195 223 248 242 243 250 245 241 237 232 229 225 218 213 213 212 203 201 204 205 207 204 202 202 202 198 193 191 188 187 191 190 190 197 196 193 193 192 194 193 192 197
183 249 245 215 223 235 251 274 106 203 257 325 354 334 311 305 298 282 280 298 332 332 305 309 327 305 316 61 92 355 290 244 153 62 56 87 103 234 247 270 275 270 259 225 209 216 225 239 249 251 249 246 237 228 231 234 228 219 215 211 205 203 203 203 203 204 203 203 202 200 195 192 191 190 193 195 194 194 194 193 195 193 193 194 194 198
270 284 283 256 249 258 274 304 12 266 285 309 315 292 268 265 267 270 319 11 336 311 301 303 306 292 282 136 175 232 230 209 132 68 39 39 5 298 267 272 277 265 237 225 239 244 236 236 240 238 240 242 237 231 233 236 232 226 221 213 206 202 199 200 203 205 205 204 202 202 199 195 193 193 194 198 197 193 194 194 193 194 197 199 196 197
253 245 244 241 245 268 287 295 280 235 273 294 285 269 275 281 288 289 19 12 276 279 277 277 288 289 281 199 169 185 184 165 128 107 90 26 306 281 267 274 280 269 245 246 245 245 252 243 234 237 243 244 240 237 238 233 229 225 220 212 207 202 198 200 205 206 205 204 203 203 202 197 195 196 196 198 198 194 195 195 193 195 199 204 199 195
230 229 230 222 214 229 260 263 248 227 213 235 256 258 269 276 273 274 271 261 251 259 262 254 272 280 282 85 139 136 135 144 133 125 133 191 245 239 228 250 286 280 264 266 257 246 250 243 240 241 242 243 240 239 235 225 227 225 215 207 202 198 195 199 203 203 202 202 202 203 203 199 196 196 197 198 197 193 195 197 196 197 199 205 202 198
222 217 217 225 207 192 220 248 239 226 206 218 236 240 269 289 274 265 263 268 254 255 257 178 153 272 291 90 122 119 119 128 131 138 148 181 205 200 222 246 255 263 269 279 278 272 260 244 248 247 243 240 230 232 229 219 221 221 210 202 196 191 192 198 201 200 200 199 200 201 203 202 200 200 201 201 200 195 196 199 198 200 202 206 207 205
264 238 197 218 218 179 193 240 257 266 258 242 250 252 267 274 255 259 279 294 295 288 262 165 185 301 330 162 141 107 115 108 112 127 132 152 181 176 174 219 236 250 267 273 266 259 256 237 223 232 240 234 215 215 224 221 213 205 199 195 189 186 190 197 199 198 199 199 199 201 203 204 204 205 207 207 204 198 198 202 202 204 205 206 211 211
284 307 200 208 234 177 186 212 241 270 271 263 278 261 252 280 273 278 303 304 296 307 305 223 234 29 88 158 101 79 111 104 105 121 128 138 151 157 177 206 239 255 259 263 254 228 236 212 172 175 193 218 209 201 207 212 199 190 190 188 184 187 192 195 196 198 200 200 200 202 203 205 204 206 208 207 204 200 202 205 207 208 207 206 208 210
269 304 231 179 205 215 226 241 209 223 236 238 283 274 294 309 312 317 310 308 311 316 315 311 36 83 115 127 79 104 125 124 132 139 144 145 146 173 207 212 232 252 259 265 251 216 218 192 162 145 140 160 175 181 187 187 180 176 179 181 181 186 192 195 197 201 203 203 203 203 205 206 205 205 207 206 204 204 205 208 211 212 210 208 206 207
230 287 261 152 232 230 234 283 269 255 284 267 256 333 3 296 289 318 297 309 324 311 308 332 39 125 177 281 136 138 132 149 151 137 141 153 166 186 197 192 222 243 254 268 263 227 212 202 178 145 139 142 147 163 170 175 180 174 172 179 183 185 189 194 199 203 206 206 205 206 209 210 207 206 207 208 207 207 207 209 213 214 211 208 207 207
229 269 232 192 248 215 181 251 271 265 280 269 276 321 334 273 254 261 295 310 294 288 279 247 162 164 256 269 142 141 141 153 143 134 150 167 181 182 157 190 236 249 250 264 269 248 222 205 185 156 147 141 142 156 164 172 181 176 175 180 183 186 190 195 200 203 206 206 206 208 212 212 210 206 206 209 210 210 212 213 214 213 210 208 208 209
235 261 261 229 241 184 162 209 243 228 222 227 263 286 269 265 270 260 286 297 290 299 301 292 6 338 346 68 86 70 50 130 144 161 183 171 176 163 164 216 234 244 261 271 268 253 231 204 181 164 155 147 139 137 148 163 177 182 185 186 188 193 198 203 204 203 204 206 208 211 214 215 213 210 209 211 213 213 214 216 213 209 207 206 205 207
226 227 253 255 250 231 190 203 259 271 210 198 230 246 257 280 294 285 286 284 292 301 290 323 72 182 39 69 84 91 112 195 193 165 170 153 104 42 113 186 215 213 239 262 262 255 238 207 171 161 162 157 148 145 149 156 168 182 190 193 197 200 201 203 203 203 205 208 210 213 215 215 214 213 213 213 212 211 212 212 209 206 205 205 203 205
236 240 243 248 252 266 263 205 247 272 256 220 251 277 299 298 294 287 289 302 310 306 311 350 124 164 47 65 96 110 133 175 173 167 182 173 176 198 134 158 199 201 227 252 263 271 259 221 170 163 168 163 159 165 171 170 168 179 188 194 197 196 194 197 202 207 210 211 213 214 214 214 214 213 214 212 209 207 208 208 205 205 206 206 204 203
219 246 259 252 244 256 260 254 262 281 306 312 293 286 291 289 283 282 292 308 304 312 337 342 351 104 69 85 111 118 130 147 156 166 181 181 182 195 188 179 191 213 241 254 267 277 265 216 167 165 170 168 170 170 175 182 182 183 189 193 196 196 197 200 205 212 218 219 218 217 217 218 218 216 215 215 213 208 208 207 204 204 205 206 208 204
213 231 260 263 264 267 271 278 270 255 286 300 278 271 280 280 284 296 318 315 310 346 349 327 350 65 156 127 116 126 128 138 159 166 171 191 201 194 190 193 187 213 244 256 269 284 301 181 160 167 172 177 184 180 177 186 190 191 193 193 197 201 203 207 209 212 222 228 227 223 222 223 221 219 216 214 215 212 208 206 205 206 204 203 206 202
280 224 239 258 265 264 269 281 260 214 232 282 279 275 267 266 275 277 309 314 310 3 334 307 345 165 179 136 125 136 134 148 166 181 186 191 198 183 176 193 191 219 247 258 272 304 344 347 197 178 182 191 196 192 185 188 194 198 196 196 200 200 203 214 214 211 222 233 234 228 225 223 221 222 219 213 214 212 206 203 203 206 207 207 205 198
312 265 241 259 265 258 252 276 291 276 276 282 279 277 270 272 277 270 293 305 300 359 345 329 355 170 163 147 142 143 154 169 165 201 217 185 179 178 172 197 208 219 244 263 286 295 292 278 267 238 209 204 201 196 189 188 194 198 196 198 203 200 203 212 213 215 222 227 232 232 226 221 218 219 220 216 214 212 207 203 203 206 210 213 209 199
290 283 271 269 271 276 278 289 298 288 273 269 273 276 273 270 272 273 281 287 313 339 329 196 319 327 154 167 174 159 172 192 180 205 219 181 177 188 177 203 222 221 228 249 287 263 232 238 252 238 216 208 207 202 192 188 184 185 189 192 199 203 204 208 213 221 222 220 225 229 222 218 215 216 223 222 216 212 209 207 207 208 209 211 210 203
269 265 264 267 264 263 265 263 263 263 264 273 280 280 272 265 266 277 282 286 299 306 302 132 315 311 170 166 181 163 166 186 192 200 204 184 186 197 190 201 217 220 214 216 248 255 249 248 233 192 196 203 212 206 194 192 179 177 196 199 202 205 201 204 218 224 223 224 225 223 221 221 219 220 226 224 214 211 211 211 210 208 205 205 209 208
256 263 261 265 265 265 268 265 261 261 261 267 271 272 273 273 274 272 268 278 282 273 293 298 272 296 76 135 159 158 161 176 190 191 189 181 186 196 200 202 210 224 212 201 231 254 266 264 248 192 220 220 213 198 195 204 186 182 206 209 205 208 202 205 222 224 223 228 227 221 222 224 224 224 222 217 214 213 216 219 216 207 203 203 208 209
237 262 265 272 278 280 280 279 277 276 273 269 264 260 261 263 268 268 257 262 273 276 280 278 298 323 39 132 139 131 146 160 171 175 173 171 184 196 205 211 214 231 224 199 208 225 247 242 188 126 197 214 208 201 200 199 177 179 206 210 202 206 205 204 216 221 219 222 220 217 216 213 214 215 210 209 213 215 218 222 218 207 204 205 208 207
217 242 264 274 280 275 273 273 275 278 278 277 274 269 267 265 265 268 265 254 252 277 295 315 332 328 38 124 107 116 130 142 150 161 169 172 185 194 203 223 220 226 237 199 183 186 171 146 135 127 186 215 211 206 198 184 171 184 207 218 207 205 204 204 211 220 222 219 216 216 213 207 206 206 207 210 212 214 220 221 216 211 210 209 207 204
234 247 264 273 271 268 271 274 278 280 275 271 270 266 266 266 263 265 271 268 240 242 274 285 284 301 56 54 105 126 134 147 154 162 171 173 189 196 202 229 219 209 220 176 161 165 136 114 110 134 239 230 213 204 192 180 180 192 201 211 214 204 202 206 213 223 226 218 213 214 212 215 219 215 214 217 215 218 228 227 215 210 209 207 205 205
266 262 261 268 270 270 273 278 283 282 270 263 265 264 258 258 261 259 261 265 249 227 247 258 272 341 67 14 193 143 142 151 159 169 172 171 190 197 198 233 228 198 185 160 156 157 137 117 104 243 232 224 211 207 195 185 188 191 190 202 214 209 205 208 212 219 220 213 210 207 202 207 218 218 214 215 215 218 227 231 213 197 199 201 201 205
270 270 269 271 272 273 275 281 284 277 266 263 273 277 275 272 271 267 260 257 245 227 226 229 259 292 163 268 307 128 141 150 156 167 172 173 192 202 205 222 222 188 164 160 155 141 133 137 234 247 218 201 205 205 189 186 191 189 184 190 199 203 208 210 210 212 213 213 212 209 200 198 202 206 208 211 212 214 220 225 209 188 192 200 201 204
259 260 263 260 258 267 272 273 271 265 267 279 282 285 294 299 297 289 277 265 248 232 214 206 233 256 236 285 32 116 133 141 149 163 173 173 186 210 219 208 194 170 147 151 147 133 135 161 233 234 202 186 185 189 189 189 190 188 189 189 187 194 202 208 212 211 208 212 217 215 209 205 201 202 210 215 216 215 214 216 210 193 189 192 195 203
251 254 259 256 255 262 259 252 257 261 270 278 278 277 280 281 284 284 275 259 242 240 231 226 248 251 244 261 140 129 138 147 151 166 185 187 185 210 223 198 171 154 149 168 161 140 145 188 249 227 206 207 191 179 184 188 182 179 185 191 192 197 202 207 215 214 205 209 219 220 214 212 210 209 214 220 222 219 210 205 208 208 202 193 192 201
243 245 248 249 250 254 254 252 258 264 264 262 262 267 271 263 259 276 283 272 268 275 270 265 262 248 243 246 150 127 137 154 153 165 189 193 194 214 221 191 167 165 177 184 157 131 140 194 254 224 201 211 197 182 185 190 183 173 174 185 193 195 202 209 216 220 212 203 208 218 222 218 215 213 216 220 222 221 216 209 207 209 210 207 205 209
239 237 237 245 247 248 256 260 256 256 255 250 257 264 266 259 253 254 262 265 260 256 257 259 241 206 221 223 126 113 122 179 174 178 194 194 202 224 215 170 162 180 199 174 144 127 136 200 247 230 198 199 194 187 188 184 176 176 182 191 197 199 214 221 211 217 219 194 183 200 222 223 220 220 222 224 224 223 222 221 217 213 211 212 213 216
233 232 231 240 243 240 248 254 250 255 259 247 252 260 259 265 275 262 241 237 274 282 283 317 297 227 160 112 109 116 151 247 213 195 198 196 209 219 192 156 165 179 176 157 145 149 173 212 229 213 192 190 182 170 165 159 162 182 200 211 222 224 236 252 216 206 212 184 162 168 197 214 221 224 225 225 228 229 227 225 225 224 221 219 217 217
231 232 229 232 238 239 244 251 251 257 262 248 246 259 256 257 299 285 239 213 334 336 46 45 2 331 125 120 123 152 219 261 178 177 185 196 210 195 155 164 203 176 158 155 152 163 178 189 192 191 183 175 167 160 154 150 157 174 185 203 221 222 227 246 245 220 199 175 154 150 168 201 216 218 220 223 228 233 231 227 228 229 230 228 226 225
250 250 241 235 236 234 234 248 257 252 280 293 268 272 277 230 221 276 248 229 336 352 62 61 32 51 111 129 153 171 113 96 122 151 167 192 203 173 148 176 196 167 157 161 151 151 156 155 165 184 181 168 164 164 158 148 155 172 181 196 207 207 238 247 238 218 212 244 198 175 179 212 218 212 216 222 226 231 233 231 231 234 236 236 236 237
264 280 263 242 242 240 228 250 263 244 339 348 312 274 336 349 204 253 334 293 0 29 52 60 64 83 107 140 158 110 101 106 119 146 165 181 203 179 159 168 171 159 164 167 152 145 146 151 161 172 174 175 179 179 174 160 159 178 185 192 207 214 235 247 235 211 204 182 202 201 200 220 223 217 217 221 224 230 237 239 239 239 239 240 240 241
191 263 279 250 254 256 235 252 267 231 329 348 333 313 15 12 262 33 24 14 32 39 47 60 63 53 42 79 131 118 127 141 144 156 160 164 206 209 171 157 162 169 175 174 162 155 150 152 160 168 173 181 189 198 197 170 156 174 179 167 218 227 222 237 251 211 181 158 174 217 206 191 206 216 218 219 222 229 237 243 246 244 241 242 243 244
184 206 264 291 300 274 246 248 275 215 266 350 345 351 60 54 40 26 21 22 27 16 21 55 56 26 21 28 69 109 127 151 184 195 171 166 184 199 177 159 168 175 174 170 165 162 157 156 163 171 176 185 197 208 206 178 164 174 163 175 233 237 224 224 279 137 152 158 177 201 195 182 193 210 218 223 225 227 230 236 242 243 243 243 244 247
217 217 234 222 232 265 278 308 78 193 225 352 351 351 78 64 36 24 27 27 22 8 358 5 9 356 359 349 343 101 142 170 215 237 208 172 171 183 177 165 168 167 164 166 166 164 164 166 172 177 179 190 206 213 208 196 187 168 148 227 247 238 206 188 173 153 163 177 194 209 206 200 210 222 231 238 237 233 231 232 236 240 242 245 249 252
290 350 25 193 231 257 262 236 191 197 229 281 347 7 52 56 16 13 27 25 9 359 338 320 309 299 284 263 261 233 212 221 239 239 205 161 161 178 180 168 165 163 162 165 166 164 166 173 180 181 183 198 217 220 219 215 198 177 193 229 241 237 227 211 187 178 191 207 217 221 217 217 234 247 253 254 254 250 242 237 235 234 232 236 241 246
345 16 8 293 297 292 249 226 216 213 238 262 314 17 44 30 352 353 1 0 351 342 325 304 288 284 273 255 255 252 231 238 245 213 174 167 178 187 181 172 166 166 169 170 167 166 169 175 176 174 181 204 221 223 222 215 192 193 217 219 197 292 287 268 217 197 204 219 226 230 231 238 253 262 261 257 259 259 248 237 233 234 237 239 239 242
353 4 347 299 298 290 286 341 338 311 285 286 306 73 57 12 341 338 341 344 342 337 334 324 297 281 271 257 253 245 226 229 229 190 173 183 184 170 170 176 173 171 174 175 172 171 173 173 170 170 176 190 208 218 216 205 194 212 225 208 178 209 249 258 243 220 213 221 229 230 239 249 257 262 261 255 256 263 262 249 237 236 245 249 247 246
278 294 297 296 285 267 275 12 353 336 345 339 332 26 33 356 334 332 337 341 342 343 344 335 313 290 273 261 256 244 226 223 221 193 183 191 186 171 173 182 180 176 180 181 178 176 173 171 172 174 173 179 206 226 221 212 216 226 230 215 199 208 222 236 242 231 218 222 228 230 244 258 257 249 251 257 261 265 269 268 258 245 241 244 248 252
273 268 276 298 293 281 299 11 340 313 334 310 300 312 336 331 323 327 336 343 344 346 347 337 325 314 286 261 249 230 213 212 215 195 179 184 188 184 181 184 183 181 181 180 176 173 173 172 173 175 174 185 213 228 221 218 227 231 234 230 214 209 215 227 236 234 226 235 245 244 250 261 259 238 231 240 255 264 268 270 269 260 250 250 255 259
264 255 195 230 239 268 302 309 247 212 216 247 261 280 300 304 304 310 329 346 349 348 348 342 333 330 313 271 236 209 198 200 203 195 183 182 182 180 179 182 185 183 181 177 175 178 181 176 172 174 178 189 210 222 216 213 220 222 229 234 205 205 207 205 215 234 248 251 253 249 244 248 253 249 242 237 239 253 267 272 272 265 260 264 269 266
Height
1485 1491 1492 1491 1487 1481 1475 1472 1471 1469 1469 1470 1472 1477 1478 1479 1477 1470 1467 1464 1464 1478 1481 1474 1475 1474 1472 1473 1473 1475 1478 1479 1481 1482 1484 1486 1488 1489 1492 1494 1495 1496 1497 1498 1499 1500 1501 1501 1501 1503 1504 1506 1507 1509 1511 1513 1515 1516 1517 1519 1520 1521 1522 1523 1525 1527 1529 1531 1533 1535 1536 1538 1539 1540 1541 1541 1542 1543 1544 1546 1547 1549 1550 1551 1553 1554
1484 1491 1488 1480 1475 1471 1468 1465 1464 1465 1466 1470 1475 1479 1478 1477 1475 1466 1463 1463 1463 1476 1480 1471 1473 1474 1470 1469 1468 1470 1474 1476 1477 1479 1482 1484 1488 1490 1491 1493 1494 1495 1496 1497 1499 1500 1500 1501 1501 1502 1503 1505 1507 1508 1510 1512 1514 1515 1516 1518 1519 1520 1521 1522 1524 1526 1528 1530 1532 1534 1536 1538 1539 1540 1541 1542 1542 1543 1544 1546 1547 1549 1550 1551 1553 1554
1487 1487 1479 1470 1466 1465 1465 1463 1463 1465 1469 1475 1476 1479 1480 1475 1471 1465 1463 1463 1466 1476 1479 1473 1475 1473 1467 1465 1465 1466 1469 1472 1474 1477 1480 1484 1488 1491 1492 1493 1494 1494 1496 1496 1497 1499 1499 1500 1501 1502 1503 1504 1506 1507 1509 1510 1512 1513 1514 1516 1517 1518 1520 1522 1523 1525 1527 1529 1531 1534 1536 1537 1538 1539 1541 1542 1542 1543 1544 1545 1547 1549 1550 1551 1553 1554
1486 1479 1467 1462 1462 1465 1466 1464 1465 1470 1473 1476 1477 1480 1479 1471 1469 1472 1471 1467 1467 1472 1475 1474 1476 1474 1468 1465 1463 1464 1467 1470 1474 1476 1478 1481 1485 1489 1492 1495 1495 1494 1495 1496 1497 1497 1498 1499 1500 1501 1502 1503 1505 1506 1507 1508 1509 1510 1512 1513 1515 1517 1518 1520 1522 1524 1527 1529 1531 1533 1536 1537 1538 1539 1540 1541 1542 1542 1543 1545 1547 1549 1550 1551 1552 1554
1478 1466 1458 1458 1460 1464 1469 1469 1469 1475 1477 1473 1472 1475 1475 1468 1465 1467 1468 1469 1469 1470 1470 1474 1482 1479 1471 1470 1469 1467 1469 1472 1474 1476 1478 1480 1483 1486 1490 1493 1495 1493 1493 1495 1496 1496 1497 1498 1499 1499 1501 1501 1502 1504 1504 1505 1506 1508 1509 1511 1513 1515 1517 1519 1520 1523 1526 1528 1530 1532 1535 1536 1537 1539 1539 1540 1542 1542 1543 1545 1546 1548 1550 1551 1552 1553
1474 1461 1456 1462 1464 1466 1473 1474 1470 1473 1477 1472 1465 1463 1465 1464 1461 1460 1463 1470 1477 1479 1470 1473 1492 1489 1471 1471 1476 1472 1472 1474 1475 1476 1478 1480 1483 1485 1487 1489 1492 1493 1494 1494 1495 1496 1496 1496 1497 1497 1499 1500 1500 1501 1502 1503 1505 1507 1509 1510 1512 1515 1516 1518 1519 1522 1525 1527 1529 1531 1532 1534 1535 1537 1537 1538 1540 1541 1543 1544 1546 1547 1549 1551 1551 1552
1468 1458 1456 1465 1468 1469 1473 1473 1467 1465 1474 1475 1461 1452 1455 1458 1462 1464 1464 1471 1481 1480 1468 1467 1488 1494 1478 1475 1476 1472 1474 1477 1477 1477 1478 1481 1483 1485 1486 1487 1490 1493 1496 1496 1495 1495 1495 1495 1495 1495 1496 1497 1497 1498 1500 1502 1504 1505 1506 1507 1510 1513 1515 1517 1518 1520 1523 1525 1527 1530 1531 1533 1534 1535 1536 1537 1539 1541 1542 1544 1545 1546 1548 1550 1551 1552
1463 1461 1462 1466 1470 1471 1473 1470 1461 1459 1471 1472 1455 1449 1451 1451 1459 1464 1464 1470 1470 1468 1468 1465 1474 1488 1487 1481 1475 1472 1478 1480 1480 1481 1481 1483 1484 1484 1485 1486 1487 1492 1495 1496 1495 1493 1492 1494 1494 1494 1494 1494 1495 1496 1498 1500 1500 1501 1504 1504 1507 1511 1513 1515 1517 1519 1521 1523 1526 1528 1531 1533 1534 1535 1536 1537 1538 1540 1541 1543 1544 1545 1547 1548 1550 1551
1458 1464 1465 1466 1472 1473 1468 1459 1451 1455 1466 1463 1450 1450 1452 1451 1458 1462 1465 1468 1462 1468 1480 1470 1468 1488 1495 1486 1478 1477 1481 1484 1483 1484 1482 1483 1485 1484 1485 1486 1487 1491 1493 1493 1495 1493 1490 1491 1492 1493 1493 1492 1493 1494 1495 1495 1496 1499 1502 1503 1505 1509 1511 1512 1515 1517 1519 1522 1524 1527 1529 1531 1533 1534 1535 1536 1537 1539 1540 1542 1543 1544 1545 1547 1548 1550
1456 1459 1457 1460 1470 1469 1459 1449 1447 1455 1461 1454 1450 1455 1456 1457 1461 1463 1466 1468 1469 1482 1491 1476 1472 1493 1502 1490 1483 1484 1487 1487 1484 1484 1483 1483 1485 1485 1486 1488 1488 1490 1492 1492 1493 1493 1492 1492 1492 1493 1492 1490 1491 1492 1492 1492 1494 1497 1500 1501 1505 1508 1509 1511 1513 1516 1518 1520 1522 1525 1527 1529 1531 1533 1534 1535 1536 1538 1539 1540 1542 1543 1544 1545 1547 1549
1454 1455 1454 1456 1462 1459 1452 1450 1449 1453 1455 1451 1455 1461 1462 1461 1460 1464 1469 1473 1487 1499 1495 1480 1473 1486 1500 1493 1485 1485 1484 1483 1484 1485 1485 1483 1485 1487 1487 1488 1489 1490 1492 1492 1493 1493 1493 1493 1492 1492 1490 1489 1490 1490 1490 1490 1492 1495 1498 1500 1503 1506 1507 1509 1510 1512 1515 1518 1520 1522 1524 1527 1529 1531 1532 1533 1534 1536 1537 1538 1540 1541 1543 1544 1546 1548
1456 1459 1457 1454 1456 1454 1455 1456 1452 1451 1453 1456 1461 1465 1471 1473 1470 1476 1481 1484 1503 1509 1493 1479 1473 1481 1496 1492 1481 1479 1476 1476 1482 1486 1486 1484 1485 1488 1488 1489 1491 1492 1493 1492 1492 1493 1492 1492 1491 1491 1489 1487 1488 1489 1488 1489 1489 1492 1495 1497 1500 1502 1504 1505 1507 1510 1513 1516 1518 1520 1522 1525 1527 1529 1530 1532 1533 1534 1535 1536 1538 1540 1542 1543 1545 1547
1461 1459 1454 1452 1452 1453 1461 1465 1460 1455 1455 1462 1466 1469 1481 1489 1491 1498 1498 1494 1501 1499 1481 1473 1478 1484 1489 1482 1475 1475 1474 1475 1479 1482 1482 1483 1485 1487 1488 1490 1492 1493 1493 1492 1492 1493 1492 1492 1491 1490 1488 1486 1487 1487 1487 1487 1487 1488 1490 1493 1496 1498 1499 1502 1505 1508 1511 1514 1516 1518 1520 1523 1525 1526 1528 1530 1531 1532 1533 1534 1536 1538 1540 1542 1544 1546
1465 1457 1450 1453 1453 1450 1458 1467 1469 1464 1460 1464 1465 1470 1482 1492 1505 1513 1502 1493 1494 1488 1474 1471 1481 1487 1485 1481 1474 1471 1471 1473 1477 1480 1481 1483 1485 1486 1486 1488 1491 1491 1492 1492 1492 1492 1492 1491 1490 1489 1487 1486 1486 1486 1486 1485 1485 1485 1487 1490 1492 1495 1498 1500 1503 1505 1509 1512 1514 1516 1518 1521 1523 1524 1527 1528 1530 1531 1531 1532 1535 1537 1539 1541 1543 1545
1473 1468 1454 1454 1452 1447 1453 1459 1460 1458 1458 1459 1453 1458 1471 1479 1495 1502 1492 1490 1491 1483 1477 1476 1483 1488 1489 1485 1473 1466 1468 1472 1478 1481 1481 1483 1483 1484 1485 1487 1489 1490 1491 1492 1492 1492 1492 1491 1490 1488 1487 1486 1485 1485 1484 1484 1484 1484 1485 1488 1490 1493 1496 1498 1501 1504 1507 1510 1512 1515 1517 1519 1521 1523 1525 1527 1529 1530 1531 1532 1534 1535 1537 1539 1542 1544
1472 1470 1448 1443 1442 1441 1450 1449 1447 1456 1462 1455 1445 1453 1465 1464 1469 1476 1475 1477 1478 1480 1484 1482 1482 1483 1481 1477 1468 1467 1471 1472 1478 1481 1480 1483 1483 1483 1486 1486 1488 1489 1490 1491 1491 1491 1491 1490 1489 1488 1487 1486 1485 1484 1484 1483 1483 1483 1484 1486 1489 1491 1494 1496 1499 1502 1505 1508 1510 1512 1515 1517 1519 1521 1523 1525 1527 1529 1531 1532 1533 1534 1535 1537 1539 1542
1473 1469 1443 1440 1444 1441 1446 1443 1440 1453 1460 1456 1454 1458 1456 1447 1453 1470 1477 1470 1472 1491 1494 1483 1485 1486 1481 1480 1473 1471 1475 1475 1477 1479 1479 1481 1482 1483 1485 1484 1487 1488 1489 1490 1490 1490 1491 1490 1489 1488 1486 1486 1484 1484 1484 1484 1484 1483 1485 1487 1488 1491 1494 1496 1498 1500 1503 1505 1508 1510 1512 1515 1517 1519 1522 1524 1526 1528 1529 1531 1532 1533 1534 1535 1536 1539
1467 1471 1447 1444 1454 1445 1440 1443 1439 1439 1444 1455 1463 1454 1445 1446 1451 1467 1483 1483 1488 1504 1498 1486 1493 1495 1492 1493 1482 1474 1480 1480 1478 1479 1479 1480 1480 1481 1482 1483 1486 1487 1488 1490 1489 1489 1490 1489 1489 1487 1486 1485 1484 1484 1484 1484 1485 1485 1486 1488 1489 1491 1494 1496 1498 1499 1501 1503 1505 1508 1510 1512 1515 1518 1520 1523 1525 1527 1528 1529 1530 1531 1532 1533 1534 1538
1455 1472 1458 1445 1452 1443 1437 1449 1453 1444 1440 1449 1453 1443 1449 1467 1470 1469 1482 1492 1497 1503 1498 1490 1493 1494 1491 1490 1483 1480 1482 1481 1480 1480 1479 1479 1479 1480 1481 1483 1485 1486 1487 1488 1488 1489 1489 1488 1488 1487 1486 1485 1484 1484 1484 1484 1485 1486 1488 1489 1491 1493 1494 1496 1498 1498 1500 1502 1504 1506 1508 1511 1513 1516 1519 1521 1523 1525 1526 1527 1529 1530 1531 1532 1534 1537
1449 1470 1470 1448 1442 1442 1442 1452 1462 1456 1445 1444 1447 1445 1450 1460 1465 1467 1474 1481 1490 1498 1500 1497 1499 1498 1487 1479 1480 1483 1481 1479 1481 1481 1479 1479 1479 1479 1480 1481 1483 1484 1485 1486 1487 1487 1487 1486 1485 1485 1485 1484 1483 1484 1484 1485 1486 1487 1489 1490 1491 1493 1495 1496 1497 1498 1499 1501 1503 1506 1507 1510 1512 1514 1517 1519 1521 1522 1524 1526 1527 1528 1530 1532 1534 1536
1449 1465 1473 1457 1443 1447 1452 1453 1455 1453 1449 1452 1456 1456 1455 1453 1453 1461 1466 1466 1475 1490 1498 1504 1511 1502 1480 1472 1476 1479 1477 1476 1476 1478 1478 1478 1478 1479 1479 1480 1481 1482 1483 1485 1486 1485 1485 1485 1484 1484 1484 1483 1483 1484 1484 1485 1486 1487 1489 1490 1491 1493 1494 1495 1496 1497 1499 1501 1503 1505 1507 1509 1511 1513 1515 1517 1518 1520 1522 1523 1525 1527 1529 1531 1533 1535
1453 1461 1469 1466 1459 1459 1455 1445 1442 1443 1442 1448 1453 1454 1457 1456 1458 1472 1479 1468 1465 1475 1483 1496 1510 1500 1476 1470 1472 1470 1473 1473 1472 1475 1477 1476 1477 1478 1479 1481 1482 1481 1482 1483 1483 1484 1485 1484 1483 1482 1483 1483 1483 1484 1485 1486 1487 1487 1489 1490 1491 1492 1493 1494 1496 1497 1498 1500 1502 1504 1506 1508 1510 1511 1513 1515 1516 1518 1520 1522 1523 1525 1527 1529 1531 1533
1446 1455 1465 1466 1462 1458 1449 1437 1435 1437 1436 1440 1445 1448 1451 1453 1457 1472 1483 1476 1468 1470 1472 1481 1499 1496 1476 1469 1470 1469 1471 1471 1471 1474 1475 1474 1476 1476 1478 1480 1481 1481 1481 1482 1482 1482 1483 1484 1482 1481 1482 1483 1483 1484 1485 1486 1487 1488 1489 1490 1492 1493 1494 1495 1496 1497 1499 1499 1501 1502 1504 1506 1507 1509 1511 1513 1514 1516 1518 1520 1522 1524 1525 1527 1530 1532
1443 1455 1467 1468 1460 1452 1445 1437 1433 1434 1440 1448 1449 1445 1448 1452 1452 1457 1464 1466 1470 1476 1478 1487 1503 1499 1477 1469 1472 1472 1471 1472 1473 1473 1472 1473 1473 1475 1478 1478 1479 1480 1479 1480 1481 1481 1483 1484 1483 1482 1482 1483 1483 1484 1485 1486 1487 1488 1489 1491 1492 1494 1494 1495 1497 1498 1499 1499 1500 1501 1503 1505 1506 1507 1509 1511 1513 1514 1516 1518 1521 1523 1524 1526 1528 1529
1452 1459 1467 1476 1477 1472 1465 1458 1451 1444 1447 1454 1452 1446 1446 1447 1448 1452 1456 1462 1473 1479 1479 1488 1501 1493 1474 1469 1473 1473 1472 1473 1473 1472 1472 1472 1472 1474 1476 1476 1478 1479 1478 1479 1480 1481 1485 1486 1485 1483 1483 1483 1484 1484 1485 1486 1487 1488 1490 1491 1492 1494 1495 1495 1497 1498 1499 1500 1501 1502 1503 1504 1505 1506 1507 1509 1511 1513 1515 1517 1520 1521 1522 1524 1527 1528
1457 1461 1464 1478 1489 1490 1486 1479 1470 1460 1456 1456 1453 1448 1446 1445 1448 1455 1460 1470 1480 1478 1474 1483 1490 1481 1471 1471 1473 1473 1473 1473 1473 1473 1471 1471 1472 1473 1474 1476 1478 1478 1478 1479 1480 1481 1483 1485 1485 1485 1485 1485 1485 1485 1486 1487 1488 1489 1490 1492 1493 1494 1494 1494 1496 1497 1498 1499 1500 1500 1502 1503 1504 1504 1505 1507 1509 1511 1513 1516 1518 1519 1521 1523 1526 1528
1458 1460 1461 1470 1476 1477 1476 1470 1461 1458 1460 1461 1455 1450 1448 1447 1447 1452 1462 1474 1477 1474 1478 1481 1478 1475 1474 1474 1474 1474 1473 1473 1472 1471 1470 1470 1472 1473 1474 1476 1477 1478 1479 1479 1480 1481 1480 1480 1482 1485 1487 1487 1487 1487 1487 1487 1488 1489 1490 1491 1491 1492 1492 1492 1493 1493 1494 1496 1496 1498 1500 1502 1503 1503 1504 1506 1508 1510 1512 1514 1516 1518 1520 1522 1524 1526
1462 1466 1462 1463 1465 1461 1459 1457 1453 1454 1458 1458 1454 1452 1450 1447 1446 1452 1462 1466 1465 1473 1483 1476 1468 1472 1474 1471 1471 1471 1471 1471 1470 1468 1468 1470 1471 1473 1474 1475 1476 1478 1479 1479 1479 1479 1478 1478 1480 1483 1485 1487 1489 1490 1489 1489 1489 1489 1489 1488 1488 1489 1489 1490 1490 1490 1492 1494 1495 1497 1499 1501 1501 1502 1503 1505 1507 1508 1510 1512 1514 1516 1518 1520 1522 1524
1462 1468 1461 1459 1460 1454 1450 1449 1448 1449 1452 1451 1451 1451 1449 1448 1449 1453 1458 1455 1456 1469 1477 1468 1465 1469 1467 1464 1465 1463 1464 1467 1466 1466 1468 1469 1471 1472 1473 1474 1476 1477 1478 1478 1478 1478 1478 1479 1479 1482 1485 1487 1489 1490 1488 1488 1488 1489 1488 1486 1486 1487 1487 1488 1489 1489 1491 1493 1495 1497 1498 1499 1500 1501 1502 1504 1505 1507 1508 1510 1512 1514 1516 1518 1521 1523
1458 1466 1461 1458 1460 1456 1452 1451 1448 1448 1449 1448 1447 1446 1445 1447 1447 1448 1450 1449 1450 1459 1460 1458 1462 1463 1459 1459 1458 1456 1459 1463 1463 1466 1468 1469 1471 1472 1472 1474 1475 1476 1477 1477 1477 1478 1479 1480 1481 1483 1485 1487 1486 1484 1484 1486 1488 1489 1487 1485 1486 1486 1487 1488 1489 1489 1491 1492 1494 1495 1496 1497 1498 1499 1501 1502 1503 1505 1506 1508 1509 1511 1514 1517 1519 1521
1456 1464 1459 1458 1464 1462 1455 1452 1449 1449 1450 1450 1448 1444 1443 1445 1445 1444 1445 1444 1448 1456 1455 1455 1463 1464 1455 1451 1452 1455 1459 1461 1463 1466 1467 1468 1469 1470 1472 1473 1473 1474 1475 1476 1477 1479 1480 1482 1484 1485 1484 1483 1483 1482 1484 1486 1488 1488 1486 1484 1485 1486 1487 1489 1489 1489 1490 1492 1492 1493 1493 1494 1496 1498 1500 1501 1502 1504 1505 1507 1508 1510 1513 1516 1518 1520
1455 1461 1459 1461 1471 1468 1456 1453 1452 1448 1449 1452 1451 1446 1445 1446 1445 1443 1442 1441 1446 1455 1459 1461 1467 1465 1454 1449 1452 1456 1458 1460 1463 1464 1465 1467 1468 1469 1471 1472 1472 1473 1473 1475 1477 1479 1480 1483 1485 1484 1482 1483 1483 1484 1485 1486 1486 1486 1484 1483 1485 1486 1487 1488 1489 1490 1491 1492 1492 1493 1493 1494 1495 1497 1500 1501 1502 1503 1504 1506 1509 1511 1513 1515 1517 1519
1455 1460 1461 1465 1473 1469 1458 1455 1453 1451 1457 1461 1452 1443 1441 1442 1441 1440 1440 1438 1439 1446 1456 1463 1462 1456 1450 1449 1452 1455 1457 1460 1462 1463 1465 1467 1467 1469 1471 1471 1471 1471 1472 1474 1477 1479 1481 1482 1482 1481 1481 1483 1484 1484 1485 1485 1485 1485 1485 1484 1485 1486 1487 1488 1489 1491 1492 1493 1494 1495 1495 1496 1496 1498 1500 1500 1502 1503 1504 1507 1510 1511 1513 1515 1516 1518
1457 1460 1461 1464 1471 1471 1462 1455 1456 1465 1471 1462 1442 1432 1433 1436 1437 1439 1439 1436 1434 1437 1445 1451 1449 1447 1447 1448 1450 1453 1456 1458 1461 1463 1465 1466 1467 1469 1470 1470 1471 1471 1472 1474 1477 1479 1481 1481 1480 1479 1481 1483 1485 1485 1485 1485 1485 1485 1485 1485 1486 1486 1487 1488 1489 1491 1492 1493 1494 1495 1496 1497 1498 1499 1500 1500 1502 1503 1504 1507 1509 1510 1512 1512 1514 1516
1459 1460 1460 1461 1466 1467 1461 1461 1475 1482 1469 1447 1432 1428 1429 1430 1432 1436 1435 1431 1431 1434 1438 1443 1445 1445 1446 1446 1447 1451 1455 1458 1461 1463 1465 1466 1467 1467 1468 1468 1470 1471 1472 1475 1477 1479 1479 1480 1479 1479 1480 1482 1483 1484 1485 1485 1485 1485 1485 1486 1486 1487 1487 1487 1489 1491 1492 1494 1495 1495 1496 1497 1499 1500 1500 1500 1502 1503 1505 1507 1508 1509 1510 1510 1512 1515
1456 1459 1459 1459 1462 1464 1464 1470 1481 1474 1452 1438 1435 1432 1430 1432 1435 1440 1441 1434 1429 1432 1437 1441 1443 1442 1442 1444 1446 1450 1455 1457 1459 1462 1463 1465 1466 1466 1466 1467 1469 1471 1473 1475 1477 1478 1478 1479 1479 1479 1480 1481 1482 1483 1484 1484 1485 1485 1485 1486 1486 1486 1487 1487 1488 1490 1491 1493 1494 1495 1496 1497 1498 1499 1500 1500 1501 1502 1504 1506 1507 1508 1509 1509 1511 1513
1449 1455 1458 1460 1460 1461 1465 1467 1464 1458 1450 1446 1443 1434 1430 1434 1436 1440 1447 1441 1430 1430 1435 1438 1440 1440 1440 1443 1445 1449 1453 1455 1458 1461 1462 1463 1464 1464 1464 1465 1468 1472 1473 1475 1478 1477 1477 1479 1479 1479 1481 1481 1482 1483 1483 1484 1485 1485 1485 1486 1486 1486 1487 1487 1488 1489 1490 1492 1494 1494 1495 1496 1496 1497 1498 1499 1500 1501 1503 1505 1507 1508 1508 1509 1511 1512
1443 1447 1454 1460 1459 1457 1463 1465 1463 1464 1462 1452 1442 1431 1426 1428 1427 1430 1443 1445 1433 1429 1433 1435 1437 1439 1440 1442 1445 1449 1452 1457 1461 1461 1460 1461 1463 1463 1463 1465 1468 1471 1473 1475 1478 1477 1476 1478 1479 1480 1481 1482 1482 1483 1483 1483 1484 1484 1485 1485 1485 1486 1486 1486 1487 1489 1489 1491 1494 1495 1494 1494 1494 1495 1496 1497 1498 1499 1501 1503 1505 1507 1507 1508 1510 1511
1439 1441 1445 1455 1457 1455 1461 1467 1467 1465 1457 1444 1436 1428 1423 1425 1423 1425 1443 1450 1437 1429 1432 1434 1435 1437 1439 1443 1447 1449 1455 1461 1462 1459 1458 1461 1463 1462 1462 1465 1468 1470 1472 1474 1477 1478 1477 1477 1479 1480 1480 1481 1482 1482 1482 1483 1483 1484 1485 1485 1485 1485 1485 1486 1487 1488 1488 1490 1492 1494 1493 1492 1492 1494 1494 1495 1496 1497 1498 1500 1503 1504 1505 1506 1507 1508
1439 1441 1443 1451 1456 1455 1458 1461 1458 1452 1444 1433 1428 1425 1422 1422 1423 1435 1456 1458 1439 1431 1433 1435 1436 1438 1438 1443 1447 1449 1455 1459 1458 1456 1457 1460 1462 1461 1462 1466 1469 1469 1471 1473 1475 1477 1477 1477 1479 1480 1480 1480 1481 1481 1481 1482 1482 1483 1484 1484 1484 1485 1485 1485 1486 1487 1488 1489 1491 1492 1492 1490 1490 1492 1493 1494 1494 1495 1496 1498 1499 1501 1502 1503 1504 1505
1446 1446 1445 1448 1451 1453 1457 1459 1454 1446 1437 1428 1424 1423 1421 1423 1434 1451 1462 1453 1439 1435 1436 1436 1440 1442 1441 1444 1447 1448 1451 1454 1453 1455 1457 1459 1460 1460 1462 1467 1469 1469 1470 1472 1473 1474 1476 1477 1478 1479 1479 1480 1480 1480 1481 1481 1481 1482 1483 1483 1484 1484 1484 1485 1485 1486 1488 1489 1489 1490 1490 1489 1489 1490 1491 1492 1492 1493 1494 1495 1496 1498 1499 1500 1501 1502
1455 1455 1452 1450 1450 1449 1451 1457 1458 1451 1439 1431 1428 1425 1424 1434 1449 1455 1449 1442 1439 1440 1439 1440 1444 1445 1444 1445 1447 1448 1450 1452 1453 1455 1456 1457 1459 1460 1462 1465 1467 1467 1469 1470 1472 1474 1476 1476 1477 1478 1478 1479 1479 1479 1480 1480 1481 1482 1482 1482 1483 1483 1484 1484 1485 1486 1487 1488 1488 1489 1489 1489 1489 1489 1489 1490 1491 1491 1492 1493 1494 1495 1496 1498 1499 1500
1456 1461 1462 1457 1452 1450 1452 1461 1469 1464 1447 1437 1437 1436 1435 1444 1452 1448 1442 1442 1443 1442 1442 1444 1446 1446 1447 1447 1448 1449 1451 1452 1454 1455 1456 1458 1459 1460 1462 1464 1465 1466 1467 1469 1472 1474 1475 1475 1476 1477 1477 1478 1478 1479 1479 1480 1481 1481 1482 1482 1482 1483 1483 1483 1484 1485 1486 1487 1488 1488 1489 1489 1488 1489 1490 1490 1490 1491 1492 1492 1493 1494 1495 1496 1497 1497
1449 1454 1461 1460 1457 1457 1459 1461 1463 1458 1445 1439 1445 1448 1446 1447 1448 1445 1444 1445 1445 1445 1446 1446 1447 1448 1449 1448 1449 1451 1451 1452 1454 1455 1456 1458 1459 1460 1462 1464 1464 1465 1467 1469 1472 1473 1474 1475 1475 1476 1477 1477 1477 1478 1478 1479 1480 1480 1481 1482 1481 1481 1482 1483 1483 1484 1485 1486 1487 1487 1488 1488 1488 1489 1489 1490 1490 1491 1491 1492 1492 1493 1494 1494 1495 1495
1446 1443 1449 1455 1456 1456 1456 1452 1449 1447 1443 1442 1445 1447 1446 1447 1448 1448 1447 1447 1447 1448 1448 1447 1449 1450 1450 1450 1450 1451 1451 1452 1453 1454 1455 1457 1459 1461 1463 1464 1464 1465 1467 1469 1471 1472 1473 1474 1475 1476 1476 1476 1476 1477 1477 1477 1478 1479 1480 1480 1480 1480 1481 1482 1483 1483 1484 1485 1485 1486 1487 1488 1488 1488 1489 1489 1489 1490 1490 1491 1491 1491 1492 1493 1493 1494
1442 1442 1445 1448 1448 1447 1447 1446 1445 1445 1445 1444 1445 1445 1445 1447 1448 1448 1449 1449 1450 1451 1450 1450 1451 1450 1450 1451 1450 1450 1450 1451 1452 1454 1455 1456 1458 1461 1462 1464 1464 1466 1467 1469 1470 1471 1472 1473 1474 1475 1475 1475 1475 1476 1476 1476 1477 1478 1478 1479 1479 1479 1480 1481 1482 1483 1483 1484 1484 1485 1486 1486 1487 1487 1488 1488 1488 1488 1489 1489 1489 1490 1491 1491 1491 1492
1445 1448 1451 1451 1451 1452 1450 1445 1442 1445 1445 1445 1446 1446 1446 1447 1448 1448 1449 1450 1450 1451 1451 1451 1451 1451 1450 1450 1449 1449 1450 1450 1451 1453 1454 1456 1458 1459 1462 1464 1465 1466 1467 1468 1468 1470 1471 1472 1473 1474 1474 1474 1474 1474 1474 1475 1475 1476 1477 1477 1478 1479 1479 1479 1480 1481 1482 1483 1483 1484 1485 1485 1486 1486 1486 1487 1487 1487 1487 1487 1488 1488 1489 1489 1489 1490
1452 1453 1455 1458 1459 1458 1454 1448 1445 1446 1446 1447 1448 1448 1447 1449 1450 1449 1449 1450 1450 1450 1450 1450 1450 1450 1449 1448 1449 1449 1449 1450 1452 1452 1453 1455 1456 1457 1461 1464 1465 1466 1467 1467 1467 1468 1469 1470 1472 1473 1473 1474 1473 1473 1473 1473 1474 1475 1475 1475 1477 1478 1478 1478 1479 1480 1481 1482 1482 1483 1483 1484 1484 1484 1485 1485 1485 1485 1485 1486 1486 1486 1487 1487 1487 1487
1454 1454 1455 1458 1459 1455 1452 1451 1450 1450 1449 1448 1449 1450 1450 1450 1451 1451 1451 1451 1450 1449 1449 1449 1449 1449 1448 1449 1449 1449 1449 1451 1451 1451 1452 1453 1454 1456 1459 1462 1464 1466 1466 1465 1466 1467 1468 1470 1471 1472 1473 1473 1472 1472 1472 1472 1473 1473 1473 1474 1475 1475 1476 1477 1477 1478 1479 1480 1481 1482 1482 1482 1483 1483 1483 1483 1484 1484 1484 1484 1485 1485 1485 1485 1485 1486
1453 1453 1453 1457 1461 1459 1455 1454 1454 1456 1456 1454 1452 1453 1452 1451 1451 1452 1451 1450 1450 1449 1449 1448 1448 1447 1447 1447 1448 1448 1448 1449 1450 1451 1452 1453 1453 1455 1457 1460 1463 1466 1466 1465 1466 1467 1467 1469 1470 1471 1471 1472 1471 1471 1472 1472 1472 1472 1472 1473 1473 1474 1474 1475 1476 1477 1478 1478 1479 1480 1481 1481 1481 1482 1482 1482 1482 1483 1483 1483 1484 1484 1484 1484 1484 1484
1453 1452 1451 1457 1461 1460 1458 1456 1455 1456 1458 1457 1456 1455 1454 1452 1452 1452 1451 1451 1450 1449 1448 1447 1446 1445 1444 1444 1444 1444 1445 1446 1448 1450 1451 1452 1453 1455 1456 1458 1461 1464 1465 1465 1465 1465 1466 1468 1469 1469 1470 1470 1470 1470 1471 1471 1471 1471 1471 1472 1472 1473 1474 1474 1475 1476 1477 1477 1478 1479 1479 1480 1480 1480 1480 1481 1481 1481 1482 1482 1482 1482 1482 1482 1482 1483